Regional Weather Roundup
Issued by NWS

Home | Current Version | Previous Version | Graphics & Text | Print | Product List | Glossary On
Versions: 1 2 3 4 5 6 7 8 9 10 11 12 13 14 15 16 17 18 19 20 21 22 23 24 25 26 27 28 29 30 31 32 33 34 35 36 37 38 39 40 41 42 43 44 45 46 47 48 49 50
000
ASUS43 KFSD 290010
RWRSD

WEATHER ROUNDUP FOR SOUTH DAKOTA
NATIONAL WEATHER SERVICE SIOUX FALLS SD
700 PM CDT THU JUL 28 2016

NOTE: "FAIR" INDICATES FEW OR NO CLOUDS BELOW 12,000 FEET WITH NO
SIGNIFICANT WEATHER AND/OR OBSTRUCTIONS TO VISIBILITY.


SDZ001>005-009-010-012>017-290100-
NORTHWEST AND NORTH CENTRAL SOUTH DAKOTA

CITY           SKY/WX    TMP DP  RH WIND       PRES   REMARKS
BUFFALO          N/A     69  63  81 NE8       30.07F
FAITH            N/A     63  61  93 NE10      30.12R
MOBRIDGE       MOSUNNY   79  53  40 NE9       30.06S
$$

SDZ012>016-024>037-041>051-057-063-072>074-290100-
SOUTHWEST AND SOUTH CENTRAL SOUTH DAKOTA

CITY           SKY/WX    TMP DP  RH WIND       PRES   REMARKS
RAPID CTY ARPT MOSUNNY   74  55  51 N7        30.13R
PIERRE         LGT RAIN  66  62  87 W12       30.07R
CUSTER         MOSUNNY   67  51  56 SE6       30.23R
PHILIP         CLOUDY    65  64  97 NE7       30.08R
PINE RIDGE     SUNNY     77  56  48 N8        30.11S
WINNER         CLOUDY    72  64  76 SW6       30.06S
$$

SDZ004>011-016>023-039-040-290100-
NORTHEAST SOUTH DAKOTA

CITY           SKY/WX    TMP DP  RH WIND       PRES   REMARKS
ABERDEEN       SUNNY     79  57  46 E3        30.05S
WATERTOWN      SUNNY     76  56  49 NE8       30.06S
BROOKINGS      MOSUNNY   73  57  57 NE8       30.06R
SISSETON         N/A     77  58  51 CALM      30.04S
$$

SDZ017-020-022-023-036>040-048>070-290100-
SOUTHEAST SOUTH DAKOTA

CITY           SKY/WX    TMP DP  RH WIND       PRES   REMARKS
SIOUX FALLS    CLOUDY    75  59  57 N12       30.05R
HURON          CLOUDY    79  58  48 NE10      30.03S
CHAMBERLAIN    CLOUDY    80  60  50 NE7       30.04F
MITCHELL       CLOUDY    78  60  53 E7        30.03S
YANKTON        CLOUDY    79  55  44 N8        30.01S
$$

ABBREVIATIONS USED IN REMARKS
   TC - TEMPERATURE IN CELSIUS
  WCI - WIND CHILL INDEX
   HX - HEAT INDEX
  VSB - VISIBILITY




USA.gov is the U.S. government's official web portal to all federal, state and local government web resources and services.